Powrót do katalogu

COSMOS 886 DEB

AktywnyUNKNOWN
NORAD 9956·DEBRIS·🇷🇺 Russia

Wystrzelony Dec 27, 1976 z Baikonur Cosmodrome

Loading…

Następne Przeloty (najbliższe 24 godziny)

TLE

ŚwieżeSource: Space-Track

Epoka: Sep 4, 2026, 09:16 UTC

1  9956U 76126AW  26247.38641382  .00000033  00000-0  15580-3 0  9995
2  9956  65.7953  40.8814 0931312 271.3646  78.0986 12.36903280540965

Śledź COSMOS 886 DEB w czasie rzeczywistym z AllMySat

Download on the App Store